FW0708 Weather Reports


Display with metric or nautical units.
time (UTC)temp
F
wind
direction
speed
MPH
gust
MPH
rain 1hr
in
rain 24hr
in
rain mn
in
humidity
%
barometer
mb
20260902154512 77 310 1.0 4.0 0.00 0.00 0.00 62 1011.3
20260902153004 76 358 1.0 4.0 0.00 0.00 0.00 65 1011.2
20260902151606 75 336 0.0 3.0 0.00 0.00 0.00 66 1011.3
20260902150056 74 341 1.0 5.0 0.00 0.00 0.00 66 1011.5
20260902144551 74 283 1.0 4.0 0.00 0.00 0.00 69 1011.8
20260902143050 73 255 0.0 5.0 0.00 0.00 0.00 70 1011.8
20260902141544 71 327 0.0 3.0 0.00 0.00 0.00 73 1011.9
20260902140044 69 212 0.0 3.0 0.00 0.00 0.00 76 1011.9
20260902134549 68 187 1.0 5.0 0.00 0.00 0.00 79 1011.9
20260902133031 66 207 1.0 5.0 0.00 0.00 0.00 83 1012.0
20260902131541 64 253 0.0 3.0 0.00 0.00 0.00 90 1012.0
20260902130024 62 341 0.0 2.0 0.00 0.00 0.00 92 1011.8
20260902124521 61 341 0.0 4.0 0.00 0.00 0.00 93 1011.7
20260902123018 59 197 0.0 0.0 0.00 0.00 0.00 92 1011.5
20260902121515 59 197 0.0 0.0 0.00 0.00 0.00 90 1011.2
20260902120014 60 197 0.0 0.0 0.00 0.00 0.00 90 1011.1
20260902114514 60 197 0.0 0.0 0.00 0.00 0.00 89 1011.1
20260902113008 61 197 0.0 0.0 0.00 0.00 0.00 88 1011.1
20260902111513 61 197 0.0 0.0 0.00 0.00 0.00 88 1011.2
20260902110008 62 197 0.0 0.0 0.00 0.00 0.00 87 1011.2
20260902104512 62 197 0.0 0.0 0.00 0.00 0.00 88 1011.3
20260902103005 62 197 0.0 1.0 0.00 0.00 0.00 88 1011.5
20260902101503 62 197 0.0 0.0 0.00 0.00 0.00 88 1011.7
20260902100002 62 253 0.0 0.0 0.00 0.00 0.00 89 1011.4
20260902094502 62 253 0.0 0.0 0.00 0.00 0.00 88 1011.2
20260902093001 62 253 0.0 0.0 0.00 0.00 0.00 87 1011.0
20260902091610 62 253 0.0 0.0 0.00 0.00 0.00 86 1011.1
20260902090001 62 253 0.0 0.0 0.00 0.00 0.00 86 1011.2
20260902084602 62 253 0.0 1.0 0.00 0.01 0.00 86 1011.2
20260902083059 63 253 0.0 1.0 0.00 0.01 0.00 87 1011.0
20260902081558 63 253 0.0 0.0 0.00 0.01 0.00 87 1010.7
20260902080112 63 253 0.0 0.0 0.00 0.01 0.00 86 1010.8
20260902074559 63 253 0.0 3.0 0.00 0.01 0.00 86 1011.1
20260902073106 63 260 0.0 1.0 0.00 0.01 0.00 88 1011.4
20260902071609 62 260 0.0 0.0 0.00 0.01 0.00 88 1010.9
20260902070054 62 260 0.0 0.0 0.00 0.01 0.00 88 1011.1
20260902064553 62 260 0.0 0.0 0.00 0.01 0.00 88 1010.8
20260902063051 62 260 0.0 0.0 0.00 0.01 0.00 89 1011.1
20260902061605 62 260 0.0 0.0 0.00 0.01 0.00 90 1011.3
20260902060049 62 260 0.0 0.0 0.00 0.01 0.00 90 1011.1
20260902054547 62 260 0.0 0.0 0.00 0.01 0.00 90 1011.2
20260902053048 61 260 0.0 0.0 0.00 0.01 0.00 89 1011.3
20260902051546 61 260 0.0 0.0 0.00 0.01 0.00 88 1011.2
20260902050047 61 260 0.0 1.0 0.00 0.01 0.00 88 1011.3
20260902044543 62 260 0.0 1.0 0.00 0.01 0.01 87 1011.4
20260902043042 62 260 0.0 0.0 0.00 0.01 0.01 85 1011.3
20260902041544 63 260 0.0 0.0 0.00 0.01 0.01 85 1011.1
20260902040041 63 260 0.0 0.0 0.00 0.01 0.01 84 1011.0
20260902034541 64 260 0.0 0.0 0.00 0.01 0.01 82 1010.8
20260902033040 64 260 0.0 0.0 0.00 0.01 0.01 82 1010.9
20260902031540 64 260 0.0 1.0 0.00 0.01 0.01 81 1010.9
20260902030039 65 260 0.0 0.0 0.00 0.01 0.01 80 1010.8
20260902024539 65 260 0.0 0.0 0.00 0.01 0.01 79 1010.9
20260902023038 66 260 0.0 0.0 0.00 0.01 0.01 77 1010.9
20260902021548 67 260 0.0 1.0 0.00 0.01 0.01 75 1010.8
20260902020037 68 260 0.0 1.0 0.00 0.01 0.01 72 1010.6
20260902014543 70 260 0.0 1.0 0.00 0.01 0.01 69 1010.4
20260902013036 71 260 0.0 1.0 0.00 0.01 0.01 65 1010.2
20260902011547 73 260 1.0 3.0 0.00 0.01 0.01 62 1010.1
20260902010106 75 260 0.0 1.0 0.00 0.01 0.01 57 1009.9
20260902004535 77 260 0.0 3.0 0.00 0.01 0.01 54 1009.7
20260902003035 78 261 1.0 4.0 0.00 0.01 0.01 49 1009.8
20260902001534 80 262 1.0 3.0 0.00 0.01 0.01 48 1009.7
20260902000043 81 260 1.0 4.0 0.00 0.01 0.01 46 1009.6
20260901234533 81 257 1.0 7.0 0.00 0.01 0.01 44 1009.5
20260901233033 82 255 1.0 5.0 0.00 0.01 0.01 43 1009.3
20260901231541 82 243 2.0 7.0 0.00 0.01 0.01 41 1009.3
20260901230036 83 226 0.0 9.0 0.00 0.01 0.01 40 1009.2
20260901224541 83 237 5.0 10.0 0.00 0.01 0.01 38 1009.1
20260901223045 84 243 2.0 11.0 0.00 0.01 0.01 39 1009.2
20260901221530 85 280 6.0 19.0 0.00 0.01 0.01 36 1009.3
20260901220031 87 259 7.0 17.0 0.00 0.01 0.01 33 1009.1
20260901214531 87 283 6.0 21.0 0.00 0.01 0.01 34 1009.2
20260901213039 87 228 7.0 18.0 0.00 0.01 0.01 35 1009.1
20260901211530 87 246 8.0 15.0 0.00 0.01 0.01 34 1009.0
20260901210038 87 278 7.0 14.0 0.00 0.01 0.01 33 1008.8
20260901204530 88 269 9.0 19.0 0.00 0.01 0.01 31 1008.8
20260901203028 90 228 8.0 20.0 0.00 0.01 0.01 31 1008.8
20260901201526 89 253 8.0 17.0 0.00 0.01 0.01 32 1008.7
20260901200040 89 282 4.0 13.0 0.00 0.01 0.01 34 1008.9
20260901194529 89 220 9.0 19.0 0.00 0.01 0.01 31 1009.1
20260901193022 89 210 8.0 12.0 0.00 0.01 0.01 34 1008.8
20260901191527 88 238 5.0 10.0 0.00 0.01 0.01 37 1009.3
20260901190016 88 269 5.0 14.0 0.00 0.01 0.01 37 1009.5
20260901184514 88 215 4.0 14.0 0.00 0.01 0.01 38 1009.8
20260901183013 87 202 10.0 16.0 0.00 0.01 0.01 36 1009.9
20260901181509 87 280 4.0 14.0 0.00 0.01 0.01 38 1010.1
20260901180020 86 262 7.0 18.0 0.00 0.01 0.01 38 1010.4
20260901174504 86 242 6.0 11.0 0.00 0.01 0.01 39 1010.5
20260901173102 85 217 3.0 10.0 0.00 0.01 0.01 41 1010.7
20260901171557 84 249 0.0 13.0 0.00 0.01 0.01 43 1010.9
20260901170155 83 202 0.0 7.0 0.00 0.01 0.01 47 1011.0
20260901164550 82 215 1.0 5.0 0.00 0.01 0.01 48 1011.2
20260901163046 82 199 0.0 4.0 0.00 0.01 0.01 54 1011.2
20260901161548 81 199 0.0 3.0 0.00 0.01 0.01 55 1011.4
20260901160040 80 199 0.0 4.0 0.00 0.01 0.01 58 1011.5